Location: Unspecified
(58.9933°N, 5.6375°E)
Time: 02:12:28
(UTC+01:00)

Cosmos 2058 - Pass Details

Date: 29 January 2018
Orbit: 563 x 585 km, 82.5° (Epoch: 20 February)

Event Time Altitude Azimuth Distance (km) Brightness Sun altitude
Rises 18:32:13 0° 185° (S) 2,801 6.7 -12.9°
Reaches altitude 10° 18:34:24 10° 183° (S) 1,907 5.8 -13.1°
Maximum altitude 18:38:36 71° 99° (E) 627 2.9 -13.7°
Drops below altitude 10° 18:42:50 10° 17° (NNE) 1,924 5.3 -14.2°
Enters shadow 18:45:02 - 15° (NNE) 2,828 6.2 -14.5°
Sets 18:45:03 0° 15° (NNE) 2,828 6.2 -14.5°
